TimeEDT,TemperatureF,Dew PointF,Humidity,Sea Level PressureIn,VisibilityMPH,Wind Direction,Wind SpeedMPH,Gust SpeedMPH,PrecipitationIn,Events,Conditions,WindDirDegrees,DateUTC
12:55 AM,35.2,26.2,70,30.25,10.0,Calm,Calm,-,N/A,,Clear,0,2013-03-30 04:55:00
1:55 AM,32.5,25.2,74,30.24,10.0,Calm,Calm,-,N/A,,Clear,0,2013-03-30 05:55:00
2:55 AM,32.7,25.0,73,30.24,10.0,Calm,Calm,-,N/A,,Clear,0,2013-03-30 06:55:00
3:55 AM,30.7,22.8,72,30.24,10.0,Calm,Calm,-,N/A,,Clear,0,2013-03-30 07:55:00
4:55 AM,30.9,24.3,76,30.22,10.0,Calm,Calm,-,N/A,,Clear,0,2013-03-30 08:55:00
5:55 AM,31.5,23.2,71,30.22,10.0,ESE,3.5,-,N/A,,Clear,120,2013-03-30 09:55:00
6:55 AM,30.4,23.9,77,30.23,10.0,Calm,Calm,-,N/A,,Clear,0,2013-03-30 10:55:00
7:55 AM,28.9,24.8,84,30.22,10.0,ESE,5.8,-,N/A,,Clear,110,2013-03-30 11:55:00
8:55 AM,34.9,27.9,76,30.22,10.0,SE,5.8,-,N/A,,Clear,140,2013-03-30 12:55:00
9:55 AM,41.7,29.5,62,30.21,10.0,SSE,6.9,-,N/A,,Clear,160,2013-03-30 13:55:00
10:30 AM,46.4,32.0,57,30.18,10.0,South,8.1,-,N/A,,Clear,180,2013-03-30 14:30:00
10:55 AM,47.3,34.0,60,30.19,10.0,SSW,8.1,-,N/A,,Clear,200,2013-03-30 14:55:00
11:55 AM,52.0,34.7,52,30.17,10.0,SSW,8.1,-,N/A,,Clear,210,2013-03-30 15:55:00
12:55 PM,54.1,33.1,45,30.15,10.0,Variable,6.9,-,N/A,,Partly Cloudy,0,2013-03-30 16:55:00
1:55 PM,54.5,31.6,42,30.12,10.0,SSW,10.4,-,N/A,,Partly Cloudy,200,2013-03-30 17:55:00
2:55 PM,56.1,31.5,39,30.09,10.0,SSW,9.2,16.1,N/A,,Partly Cloudy,210,2013-03-30 18:55:00
3:55 PM,55.2,32.4,42,30.06,10.0,South,8.1,-,N/A,,Scattered Clouds,180,2013-03-30 19:55:00
4:55 PM,54.7,34.0,46,30.04,10.0,SW,10.4,-,N/A,,Partly Cloudy,230,2013-03-30 20:55:00
5:55 PM,55.2,34.2,45,30.02,10.0,SSW,6.9,-,N/A,,Clear,210,2013-03-30 21:55:00
6:55 PM,53.6,37.2,54,30.01,10.0,South,5.8,-,N/A,,Overcast,190,2013-03-30 22:55:00
7:55 PM,50.9,37.4,60,29.99,10.0,Calm,Calm,-,N/A,,Overcast,0,2013-03-30 23:55:00
8:55 PM,48.6,37.9,67,29.96,10.0,SE,5.8,-,N/A,,Partly Cloudy,140,2013-03-31 00:55:00
9:55 PM,46.2,38.1,73,29.95,10.0,Calm,Calm,-,N/A,,Mostly Cloudy,0,2013-03-31 01:55:00
10:55 PM,45.1,38.3,77,29.95,10.0,SW,4.6,-,N/A,,Mostly Cloudy,230,2013-03-31 02:55:00
11:55 PM,45.3,38.7,78,29.93,10.0,SW,5.8,-,N/A,,Clear,230,2013-03-31 03:55:00